Regional Weather Roundup
Issued by NWS

Home | Current Version | Previous Version | Text Only | Print | Product List | Glossary Off
Versions: 1 2 3 4 5 6 7 8 9 10 11 12 13 14 15 16 17 18 19 20 21 22 23 24 25 26 27 28 29 30 31 32 33 34 35 36 37 38 39 40 41 42 43 44 45 46 47 48 49 50

200
ASUS44 KJAN 210310
RWRMS

MISSISSIPPI HOURLY WEATHER ROUNDUP
NATIONAL WEATHER SERVICE JACKSON MS
1000 PM CDT SUN APR 20 2014

NOTE: "FAIR: INDICATES FEW OR NO CLOUDS BELOW 12,000 FEET WITH NO
SIGNIFICANT WEATHER AND/OR OBSTRUCTIONS TO VISIBILITY.

MSZ001>002-007>008-010>013-018>021-025>028-034>036-210400-
NORTHWEST MISSISSIPPI

CITY           SKY/WX    TMP DP  RH WIND       PRES   REMARKS
CLARKSDALE       N/A     66  50  55 CALM      30.12R
CLEVELAND      FAIR      67  55  64 CALM      30.10R
GREENWOOD      PTCLDY    68  49  50 SE7       30.11R
GREENVILLE     PTCLDY    68  50  52 CALM      30.10R
GRENADA        FAIR      55  54  94 CALM      30.12R
OLIVE BRANCH   CLEAR     64  50  59 CALM      30.12R
OXFORD         FAIR      59  50  72 MISG      30.14R
TUNICA         MOCLDY    64  50  59 CALM      30.12R
$$

MSZ003>006-009-014>017-022>024-029>033-037>039-210400-
NORTHEAST MISSISSIPPI

CITY           SKY/WX    TMP DP  RH WIND       PRES   REMARKS
BELMONT        FAIR      58  50  73 SE3       30.13R
COLUMBUS AFB   CLEAR     58  53  84 CALM      30.13R
CORINTH        FAIR      59  50  72 SE3       30.12R
GOLDN TRIANGLE CLEAR     63  48  59 SW3       30.16R
STARKVILLE     FAIR      55  52  88 CALM      30.13S
TUPELO         CLEAR     59  51  75 CALM      30.12R
$$

MSZ040-058-210400-
CENTRAL MISSISSIPPI

CITY           SKY/WX    TMP DP  RH WIND       PRES   REMARKS
JACKSON INTL   PTCLDY    63  52  67 CALM      30.12R
JACKSON HAWKNS PTCLDY    66  51  58 CALM      30.12R
MERIDIAN KEY   CLEAR     58  53  84 CALM      30.14R
MERIDIAN NAS   CLEAR     59  51  75 CALM      30.14R
RAYMOND        FAIR      57  54  88 CALM      30.12R
VICKSBURG      CLEAR     67  60  78 E3        30.10R
$$

MSZ059>079-210400-
SOUTH MISSISSIPPI

CITY           SKY/WX    TMP DP  RH WIND       PRES   REMARKS
BROOKHAVEN     FAIR      59  57  94 CALM      30.14R
COLUMBIA       FAIR      61  55  82 MISG      30.12R
HATTIESBURG    CLEAR     60  56  86 SE3       30.15R
MCCOMB         CLEAR     63  53  70 CALM      30.12R
NATCHEZ        CLEAR     63  55  77 S3        30.11R
PINE BELT      CLEAR     57  52  82 CALM      30.15R
$$

MSZ080>082-210400-
COASTAL MISSISSIPPI

CITY           SKY/WX    TMP DP  RH WIND       PRES   REMARKS
BILOXI         CLEAR     64  59  84 S8        30.15R
PASCAGOULA     CLEAR     59  58  96 CALM      30.16R FOG
GULFPORT       CLEAR     66  58  75 SE8       30.15R
$$



USA.gov is the U.S. government's official web portal to all federal, state and local government web resources and services.